STARLINK-1167, 45071

Orbit data source: Space-Track

STARLINK-1167, 45071 is a payload satellite owned by SpaceX/Seattle (US) in LEO that was launched on Wed, 29 Jan 2020 UTC via an FALCON 9 launch vehicle from the Air Force Eastern Test Range (AFETR). Payload-class satellites include a variety of spacecraft equipped with specific instruments for various scientific and technological missions. These include communications satellites like Starlink; space stations such as the ISS; scientific satellites like the Hubble; Earth observation satellites from companies like Planet Labs, Umbra, and HawkEye 360; GPS; miniature CubeSats for education and research; and military/defense satellites.

Loading next visibility...
Identifier
45071, 2020-006AD
Orbit
LEO
Country
Flag of USUS
Related business
Manufacturer
SpaceX/Seattle
Mission
Partially operational Commercial Communications
Bus & Motor
STARLINK, Unknown motor
Mass
260 kg wet, ~248 kg dry
Launch date (UTC)
2020-01-29 (7 years ago)
Launch vehicle
FALCON 9
Launch site
Air Force Eastern Test Range (AFETR)
Object type
Payload
Rocket body
Debris
Shape & HBR
Box + 1 Pan, 10.1 m
Radar Cross Section
13.562 m², Large (>1 m²)

Expand to show TLE details & history
Last TLE update: 11 hours ago

TLE from 11 hours ago
0 STARLINK-1167
1 45071U 20006AD  26264.02986967  .00020360  00000-0  41859-3 0  9993
2 45071  53.1525  59.5766 0002299 195.9333 164.1603 15.45981475366930
Epoch: 2026-09-21T00:43Z
TLE epoch observation values (Epoch: 2026-09-21T00:43:00.739Z)
Latitude
0.00001°
Longitude
48.90797°
Altitude
430.906 km
Speed
7.653 km/s
True Right ascension
03h 58m 18s
True Declination
0° 00' 00"
Sunlit
Object was in full shadow at epoch
Visualization orbit readout
Latitude
Unknown
Longitude
Unknown
Altitude
Unknown
Speed
Unknown
Apparent Right ascension
Unknown
Apparent Declination
Unknown
Sunlit
N/A
Visualization observer readout
Local Sidereal Time
04:14:31
Azimuth
Unknown
Elevation
Unknown
Doppler factor
Unknown
Orbital elements
Apogee altitude
430.32 km
Perigee altitude
427.19 km
Semi-major axis
6,806.892 km
Eccentricity
0.00023
Inclination
53.1525°
RAAN
59.5766°
Arg. of periapsis
195.9333°
True anomaly
164.16749°
Mean anomaly
164.1603°
Eccentric anomaly
164.16389°
Mean motion
3.86474 °/min
Orbital period
93.15 mins
BSTAR
0.00041859
Loading maneuver chart data...
Computing Atmospheric mass density...

Documentation

Showing up to 5 results
|